This demonstration page uses our WeatherBlox Daily Observations layout. Learn more.

Left ArrowRight Arrow

Hourly Observations for November 15, 2020

Temp ( °F °C ) Dew Point ( °F °C ) Humidity (%) Winds ( mph kmh ) Pressure ( in mb ) Visibility ( mi km ) Precip ( " mm )
12:45 am 00:45 Cloudy 42 5.6 35 1.7 76 76 NW 15 24 29.72 1006 10 16 0.01 0.25
12:52 am 00:52 Cloudy 42 5.6 34 1.1 73 73 WNW 14 22 29.69 1006 10 16 0.01 0.25
1:52 am 01:52 Mostly Cloudy 42 5.6 33 0.6 71 71 WNW 20 31 29.72 1006 10 16 0.00 0.00
2:52 am 02:52 Cloudy 41 5 31 -0.6 67 67 WNW 24 39 29.76 1008 10 16 0.00 0.00
3:52 am 03:52 Mostly Cloudy 39 3.9 29 -1.7 67 67 WNW 22 35 29.80 1009 10 16 0.00 0.00
4:52 am 04:52 Mostly Clear 37 2.8 28 -2.2 70 70 NW 18 30 29.83 1010 10 16 0.00 0.00
5:52 am 05:52 Clear 37 2.8 27 -2.8 67 67 WNW 16 26 29.87 1011 10 16 0.00 0.00
6:52 am 06:52 Mostly Clear 36 2.2 28 -2.2 73 73 W 15 24 29.89 1012 10 16 0.00 0.00
7:52 am 07:52 Mostly Sunny 38 3.3 27 -2.8 65 65 W 15 24 29.92 1013 10 16 0.00 0.00
8:52 am 08:52 Sunny 41 5 26 -3.3 55 55 WNW 21 33 29.94 1014 10 16 0.00 0.00
9:52 am 09:52 Sunny 43 6.1 26 -3.3 51 51 WNW 18 30 29.97 1015 10 16 0.00 0.00
10:52 am 10:52 Mostly Sunny 46 7.8 26 -3.3 46 46 WNW 22 35 29.99 1016 10 16 0.00 0.00
11:52 am 11:52 Mostly Sunny 48 8.9 25 -3.9 41 41 WNW 21 33 29.99 1016 10 16 0.00 0.00
12:52 pm 12:52 Mostly Sunny 49 9.4 24 -4.4 38 38 WNW 23 37 30.01 1016 10 16 0.00 0.00
1:52 pm 13:52 Mostly Sunny 50 10 23 -5 35 35 W 22 35 30.02 1017 10 16 0.00 0.00
2:52 pm 14:52 Partly Cloudy 49 9.4 22 -5.6 35 35 WNW 23 37 30.04 1017 10 16 0.00 0.00
3:52 pm 15:52 Mostly Sunny 50 10 21 -6.1 32 32 WNW 20 31 30.06 1018 10 16 0.00 0.00
4:52 pm 16:52 Mostly Sunny 48 8.9 20 -6.7 33 33 W 17 28 30.07 1018 10 16 0.00 0.00
5:52 pm 17:52 Mostly Clear 44 6.7 21 -6.1 40 40 W 8 13 30.08 1019 10 16 0.00 0.00
6:52 pm 18:52 Mostly Clear 42 5.6 21 -6.1 43 43 W 7 11 30.11 1020 10 16 0.00 0.00
7:52 pm 19:52 Clear 36 2.2 25 -3.9 64 64 Calm 30.12 1020 10 16 0.00 0.00
8:52 pm 20:52 Clear 34 1.1 23 -5 64 64 ESE 3 6 30.12 1020 10 16 0.00 0.00
9:52 pm 21:52 Clear 34 1.1 24 -4.4 67 67 ESE 6 9 30.13 1020 10 16 0.00 0.00
10:52 pm 22:52 Clear 32 0 25 -3.9 75 75 SE 6 9 30.12 1020 10 16 0.00 0.00
11:52 pm 23:52 Clear 31 -0.6 24 -4.4 76 76 SSE 7 11 30.12 1020 10 16 0.00 0.00

Powered by AerisWeather